Location: Doverdale
(52.2833°N, 2.2000°W)
Time: 10:42:48
(UTC+00:00)

SJ 16-02 - Pass Details

Date: 29 October 2020
Orbit: 605 x 617 km, 75.0° (Epoch: 25 November)

Event Time Altitude Azimuth Distance (km) Brightness Sun altitude
Rises 20:07:06 0° 336° (NNW) 2,898 5.4 -31.2°
Reaches altitude 10° 20:09:21 10° 338° (NNW) 1,990 4.4 -31.5°
Enters shadow 20:10:43 20° 339° (NNW) 1,454 3.6 -31.7°
